Location: Mesa Verde
(33.6055°N, 114.7275°W)
Time: 22:20:28
(UTC+00:00)

N. Korean satellite - Pass Details

Date: 07 October 2021
Orbit: 450 x 495 km, 97.3° (Epoch: 21 October)

Event Time Altitude Azimuth Distance (km) Brightness Sun altitude
Rises 12:03:37 0° 30° (NNE) 2,571 10.8 -20.4°
Reaches altitude 10° 12:06:09 10° 49° (NE) 1,689 10.1 -19.9°
Maximum altitude 12:08:47 19° 95° (E) 1,230 9.5 -19.3°
Drops below altitude 10° 12:11:26 10° 142° (SE) 1,687 9.7 -18.8°
Sets 12:13:57 0° 161° (SSE) 2,564 10.4 -18.3°
